Location: Complexul Astronomic Baia Mare
(47.6577°N, 23.5639°E)
Time: 06:50:02
(UTC+03:00)

ISS - Pass Details

Date: 20 May 2017
Orbit: 402 x 408 km, 51.6° (Epoch: 29 May)

Event Time Altitude Azimuth Distance (km) Brightness Sun altitude
Rises 04:49:37 0° 292° (WNW) 2,330 -0.2 -8.0°
Reaches altitude 10° 04:51:43 10° 296° (WNW) 1,466 -1.2 -7.7°
Maximum altitude 04:54:59 60° 18° (NNE) 468 -3.2 -7.3°
Drops below altitude 10° 04:58:13 10° 99° (E) 1,458 -0.4 -6.9°
Sets 05:00:18 0° 103° (ESE) 2,315 0.6 -6.6°
